Hourly Weather Kozyany

Today, 21 October, Wednesday

Time Temperature Precipitation Wind Pressure Humidity
00:00 +2°C° 0 mm 2 mps 752 mmHg 87%
01:00 +2°C° 0 mm 2 mps 752 mmHg 87%
02:00 +2°C° 0 mm 2 mps 752 mmHg 87%
03:00 +2°C° 0 mm 2 mps 751 mmHg 86%
04:00 +2°C° 0 mm 3 mps 751 mmHg 85%
05:00 +2°C° 0 mm 3 mps 750 mmHg 84%
06:00 +1°C° 0 mm 4 mps 750 mmHg 84%
07:00 +1°C° 0 mm 4 mps 750 mmHg 84%
08:00 +2°C° 0 mm 5 mps 750 mmHg 84%
09:00 +2°C° 0.2 mm 5 mps 749 mmHg 85%
10:00 +3°C° 0.2 mm 5 mps 749 mmHg 86%
11:00 +3°C° 0.2 mm 5 mps 748 mmHg 87%
12:00 +3°C° 0.6 mm 5 mps 748 mmHg 89%
13:00 +3°C° 0.6 mm 5 mps 748 mmHg 90%
14:00 +5°C° 0 mm 4 mps 747 mmHg 91%
15:00 +5°C° 0.1 mm 4 mps 747 mmHg 92%
16:00 +5°C° 0.1 mm 4 mps 746 mmHg 93%
17:00 +5°C° 0.1 mm 3 mps 746 mmHg 94%
18:00 +5°C° 0 mm 3 mps 746 mmHg 94%
19:00 +5°C° 0 mm 3 mps 746 mmHg 94%
20:00 +6°C° 0 mm 2 mps 746 mmHg 94%
21:00 +6°C° 0 mm 2 mps 746 mmHg 95%
22:00 +5°C° 0 mm 2 mps 746 mmHg 95%
23:00 +5°C° 0 mm 2 mps 746 mmHg 95%

Tomorrow, 22 October, Thursday

Time Temperature Precipitation Wind Pressure Humidity
00:00 +5°C° 0 mm 2 mps 746 mmHg 95%
01:00 +5°C° 0 mm 2 mps 746 mmHg 95%
02:00 +5°C° 0 mm 2 mps 746 mmHg 95%
03:00 +5°C° 0 mm 2 mps 746 mmHg 95%
04:00 +4°C° 0 mm 3 mps 745 mmHg 95%
05:00 +4°C° 0 mm 3 mps 745 mmHg 95%
06:00 +4°C° 0.5 mm 3 mps 745 mmHg 95%
07:00 +5°C° 0.5 mm 4 mps 744 mmHg 95%
08:00 +5°C° 0.5 mm 4 mps 744 mmHg 95%
09:00 +6°C° 0.3 mm 5 mps 744 mmHg 94%
10:00 +6°C° 0.3 mm 5 mps 744 mmHg 94%
11:00 +7°C° 0.3 mm 6 mps 743 mmHg 93%
12:00 +8°C° 0 mm 6 mps 743 mmHg 89%
13:00 +9°C° 0 mm 6 mps 743 mmHg 86%
14:00 +10°C° 0 mm 6 mps 742 mmHg 82%
15:00 +10°C° 0 mm 6 mps 742 mmHg 84%
16:00 +9°C° 0 mm 6 mps 742 mmHg 86%
17:00 +9°C° 0 mm 5 mps 741 mmHg 88%
18:00 +10°C° 0 mm 6 mps 741 mmHg 87%
19:00 +10°C° 0 mm 6 mps 741 mmHg 85%
20:00 +11°C° 0 mm 7 mps 741 mmHg 84%
21:00 +11°C° 0 mm 7 mps 742 mmHg 85%
22:00 +10°C° 0 mm 7 mps 742 mmHg 86%
23:00 +10°C° 0 mm 6 mps 742 mmHg 87%

Day after tomorrow, 23 October, Friday

Time Temperature Precipitation Wind Pressure Humidity
00:00 +10°C° 0 mm 6 mps 742 mmHg 88%
01:00 +10°C° 0 mm 6 mps 742 mmHg 90%
02:00 +9°C° 0 mm 5 mps 743 mmHg 91%
03:00 +9°C° 0 mm 5 mps 743 mmHg 92%
04:00 +9°C° 0 mm 5 mps 743 mmHg 93%
05:00 +8°C° 0 mm 5 mps 743 mmHg 94%
06:00 +8°C° 0 mm 5 mps 743 mmHg 95%
07:00 +8°C° 0 mm 5 mps 743 mmHg 95%
08:00 +8°C° 0 mm 5 mps 742 mmHg 96%
09:00 +9°C° 0 mm 5 mps 742 mmHg 92%
10:00 +10°C° 0 mm 5 mps 742 mmHg 89%
11:00 +12°C° 0 mm 5 mps 742 mmHg 86%
12:00 +13°C° 0.1 mm 6 mps 741 mmHg 83%
13:00 +13°C° 0.1 mm 6 mps 741 mmHg 81%
14:00 +14°C° 0.1 mm 6 mps 740 mmHg 79%
15:00 +13°C° 1 mm 6 mps 740 mmHg 83%
16:00 +13°C° 1 mm 6 mps 740 mmHg 87%
17:00 +11°C° 1 mm 6 mps 740 mmHg 91%
18:00 +11°C° 0.1 mm 6 mps 740 mmHg 90%
19:00 +11°C° 0.1 mm 6 mps 740 mmHg 90%
20:00 +11°C° 0.1 mm 6 mps 740 mmHg 90%
21:00 +10°C° 0 mm 5 mps 740 mmHg 91%
22:00 +10°C° 0 mm 5 mps 741 mmHg 92%
23:00 +10°C° 0 mm 4 mps 741 mmHg 93%

24 October, Saturday

Time Temperature Precipitation Wind Pressure Humidity
00:00 +8°C° 0 mm 4 mps 741 mmHg 93%
01:00 +8°C° 0 mm 4 mps 741 mmHg 93%
02:00 +8°C° 0 mm 3 mps 741 mmHg 92%
03:00 +8°C° 0 mm 3 mps 741 mmHg 93%
04:00 +7°C° 0 mm 3 mps 741 mmHg 94%
05:00 +7°C° 0 mm 3 mps 742 mmHg 94%
06:00 +7°C° 0 mm 3 mps 742 mmHg 94%
07:00 +7°C° 0 mm 3 mps 742 mmHg 94%
08:00 +7°C° 0 mm 3 mps 742 mmHg 93%
09:00 +8°C° 0 mm 3 mps 742 mmHg 89%
10:00 +9°C° 0 mm 3 mps 742 mmHg 84%
11:00 +10°C° 0 mm 3 mps 742 mmHg 80%
12:00 +12°C° 0 mm 2 mps 742 mmHg 78%
13:00 +12°C° 0 mm 2 mps 742 mmHg 77%
14:00 +12°C° 0 mm 2 mps 742 mmHg 76%
15:00 +12°C° 0.1 mm 2 mps 742 mmHg 81%
16:00 +10°C° 0.1 mm 2 mps 742 mmHg 86%
17:00 +9°C° 0.1 mm 2 mps 742 mmHg 91%
18:00 +9°C° 0 mm 2 mps 742 mmHg 92%
19:00 +9°C° 0 mm 2 mps 742 mmHg 94%
20:00 +9°C° 0 mm 2 mps 742 mmHg 95%
21:00 +9°C° 0 mm 2 mps 741 mmHg 95%
22:00 +9°C° 0 mm 2 mps 741 mmHg 95%
23:00 +9°C° 0 mm 2 mps 741 mmHg 95%

25 October, Sunday

Time Temperature Precipitation Wind Pressure Humidity
00:00 +9°C° 0.7 mm 2 mps 741 mmHg 96%
01:00 +9°C° 0.7 mm 2 mps 740 mmHg 97%
02:00 +9°C° 0.7 mm 2 mps 740 mmHg 98%
03:00 +9°C° 2 mm 2 mps 740 mmHg 98%
04:00 +10°C° 2 mm 1 mps 741 mmHg 98%
05:00 +10°C° 2 mm 1 mps 741 mmHg 97%
06:00 +10°C° 0.3 mm 1 mps 741 mmHg 97%
07:00 +9°C° 0.3 mm 2 mps 741 mmHg 96%
08:00 +9°C° 0.3 mm 2 mps 742 mmHg 96%
09:00 +9°C° 0 mm 3 mps 742 mmHg 92%
10:00 +10°C° 0 mm 3 mps 743 mmHg 89%
11:00 +10°C° 0 mm 4 mps 744 mmHg 86%
12:00 +10°C° 0.1 mm 4 mps 744 mmHg 85%
13:00 +10°C° 0.1 mm 4 mps 744 mmHg 84%
14:00 +9°C° 0.1 mm 5 mps 745 mmHg 83%
15:00 +8°C° 0 mm 4 mps 745 mmHg 83%
16:00 +8°C° 0 mm 4 mps 746 mmHg 84%
17:00 +9°C° 0 mm 3 mps 746 mmHg 85%
18:00 +8°C° 0 mm 3 mps 746 mmHg 87%
19:00 +7°C° 0 mm 3 mps 747 mmHg 89%
20:00 +7°C° 0 mm 2 mps 747 mmHg 91%
21:00 +7°C° 0 mm 2 mps 748 mmHg 91%
22:00 +6°C° 0 mm 2 mps 748 mmHg 91%
23:00 +6°C° 0 mm 2 mps 749 mmHg 92%

26 October, Monday

Time Temperature Precipitation Wind Pressure Humidity
00:00 +5°C° 0 mm 2 mps 749 mmHg 93%
01:00 +5°C° 0 mm 2 mps 749 mmHg 93%
02:00 +5°C° 0 mm 2 mps 749 mmHg 94%
03:00 +5°C° 0 mm 1 mps 750 mmHg 94%
04:00 +5°C° 0 mm 1 mps 750 mmHg 94%
05:00 +5°C° 0 mm 1 mps 750 mmHg 95%
06:00 +5°C° 0 mm 1 mps 751 mmHg 94%
07:00 +5°C° 0 mm 1 mps 751 mmHg 94%
08:00 +5°C° 0 mm 1 mps 751 mmHg 93%
09:00 +7°C° 0 mm 1 mps 752 mmHg 88%
10:00 +7°C° 0 mm 0 mps 752 mmHg 83%
11:00 +8°C° 0 mm 0 mps 752 mmHg 78%
12:00 +9°C° 0 mm 0 mps 752 mmHg 76%
13:00 +9°C° 0 mm 0 mps 752 mmHg 74%
14:00 +11°C° 0 mm 1 mps 753 mmHg 72%
15:00 +9°C° 0 mm 1 mps 753 mmHg 77%
16:00 +8°C° 0 mm 1 mps 753 mmHg 81%
17:00 +7°C° 0 mm 1 mps 753 mmHg 86%
18:00 +7°C° 0 mm 1 mps 753 mmHg 88%
19:00 +7°C° 0 mm 1 mps 753 mmHg 89%
20:00 +5°C° 0 mm 2 mps 753 mmHg 90%
21:00 +5°C° 0 mm 2 mps 753 mmHg 91%
22:00 +5°C° 0 mm 2 mps 753 mmHg 92%
23:00 +5°C° 0 mm 2 mps 754 mmHg 93%

27 October, Tuesday

Time Temperature Precipitation Wind Pressure Humidity
00:00 +5°C° 0 mm 2 mps 754 mmHg 94%
01:00 +4°C° 0 mm 2 mps 754 mmHg 94%
02:00 +4°C° 0 mm 2 mps 754 mmHg 95%
03:00 +4°C° 0 mm 2 mps 754 mmHg 95%
04:00 +4°C° 0 mm 2 mps 754 mmHg 95%
05:00 +3°C° 0 mm 3 mps 754 mmHg 95%
06:00 +3°C° 0 mm 3 mps 754 mmHg 95%
07:00 +3°C° 0 mm 3 mps 754 mmHg 94%
08:00 +4°C° 0 mm 3 mps 754 mmHg 94%
09:00 +5°C° 0 mm 4 mps 754 mmHg 89%
10:00 +7°C° 0 mm 4 mps 754 mmHg 84%
11:00 +8°C° 0 mm 4 mps 754 mmHg 78%
12:00 +8°C° 0 mm 4 mps 754 mmHg 77%
13:00 +10°C° 0 mm 4 mps 754 mmHg 75%
14:00 +10°C° 0 mm 4 mps 754 mmHg 73%
15:00 +8°C° 0 mm 4 mps 754 mmHg 77%
16:00 +7°C° 0 mm 4 mps 754 mmHg 82%
17:00 +6°C° 0 mm 4 mps 753 mmHg 86%
18:00 +6°C° 0 mm 4 mps 753 mmHg 85%
19:00 +6°C° 0 mm 4 mps 753 mmHg 84%
20:00 +6°C° 0 mm 4 mps 753 mmHg 84%
21:00 +6°C° 0 mm 4 mps 754 mmHg 82%
22:00 +6°C° 0 mm 4 mps 754 mmHg 80%
23:00 +6°C° 0 mm 4 mps 754 mmHg 78%
Show more